Content
SEND FEEDBACK

Daily
Averages
Monthly
Summary
United States of America

ST. LOUIS - SAINT LOUIS UNIVERSITY, MISSOURI


Home > North America > United States > Missouri
Elevation: 580 feet     Latitude: 38 38N     Longitude: 090 14W

WEATHER
 
SELECT A DAY
Number of Records: 186,092;   Date Range: 1/1/95 - 7/29/14
 
SHARE

PRINT THIS DATA

[ ← Previous Day ]
WEATHER ALMANAC - FEBRUARY 8, 2013
[ Next Day → ]
[ °C ]   °F
Weather ElementAverageHighLow
Temperature35.5 °F39.2 °F (12:10 am)30 °F (10:53 pm)
Dewpoint28.9 °F35.6 °F (12:10 am)24.1 °F (10:53 pm)
Humidity77.2 %89 % (2:53 am)68 % (2:53 pm)
Barometer30.28 in30.39 in (4:53 pm)30.05 in (12:10 am)
Wind Speed12.1 mph20.7 mph (4:53 am)
Wind Gust27.6 mph (4:53 am)
Weather ElementAverage
Visibility8.2 mi
Wind DirectionWSW (241.5 °)

Weather ElementTotal
Precipitation---
Heating Degree Days30.4 (Base 65)
Averaged from 26 records on February 8, 2013
WEATHER CONDITIONS BREAKOUT
WIND DIRECTION BREAKOUT
WEATHER BY HOUR - FEBRUARY 8, 2013
[ °C ]   °F
Local TimeTemperatureDewpointHumidityBarometerVisibilityWind DirectionWind SpeedGust SpeedPrecipitationEventsConditions
12:10 AM39.2 °F35.6 °F87 %30.05 in6.0 miNW (310°)16.1 mphOvercast
12:53 AM39.0 °F35.1 °F86 %30.07 in5.0 miNW (310°)17.3 mphOvercast
1:53 AM37.9 °F34.0 °F86 %30.10 in4.0 miNW (320°)13.8 mphOvercast
2:53 AM37.0 °F34.0 °F89 %30.11 in4.0 miNW (310°)12.7 mphOvercast
3:53 AM37.0 °F33.1 °F86 %30.14 in4.0 miNW (320°)17.3 mph23.0 mphOvercast
4:18 AM37.4 °F32.0 °F81 %30.15 in5.0 miNNW (330°)16.1 mphHaze
4:53 AM36.0 °F30.9 °F82 %30.17 in6.0 miNNW (340°)20.7 mph27.6 mphHaze
5:53 AM35.1 °F30.0 °F82 %30.21 in6.0 miNNW (340°)15.0 mph24.2 mphHaze
6:53 AM35.1 °F28.9 °F78 %30.25 in7.0 miNorth (350°)17.3 mphOvercast
7:53 AM35.1 °F28.9 °F78 %30.28 in7.0 miNNW (330°)15.0 mphOvercast
8:53 AM35.1 °F28.0 °F76 %30.31 in9.0 miNNW (330°)13.8 mphOvercast
9:53 AM35.1 °F28.0 °F76 %30.33 in10.0 miNorth (360°)16.1 mphOvercast
10:53 AM36.0 °F28.0 °F73 %30.34 in10.0 miNorth (350°)12.7 mphOvercast
11:53 AM37.0 °F28.0 °F70 %30.35 in10.0 miNorth (350°)13.8 mphOvercast
12:53 PM37.0 °F28.0 °F70 %30.34 in10.0 miNW (320°)9.2 mphOvercast
1:53 PM37.0 °F28.0 °F70 %30.33 in10.0 miNorth (350°)9.2 mphOvercast
2:53 PM37.9 °F28.0 °F68 %30.35 in10.0 miNorth (350°)8.1 mphOvercast
3:53 PM37.0 °F28.0 °F70 %30.36 in10.0 miNNE (20°)9.2 mphOvercast
4:53 PM36.0 °F28.0 °F73 %30.39 in10.0 miNNE (30°)6.9 mphOvercast
5:53 PM35.1 °F27.0 °F72 %30.36 in10.0 miNE (40°)11.5 mphOvercast
6:53 PM34.0 °F26.1 °F73 %30.36 in10.0 miENE (70°)9.2 mphOvercast
7:53 PM33.1 °F26.1 °F75 %30.38 in10.0 miEast (80°)8.1 mphOvercast
8:53 PM32.0 °F25.0 °F75 %30.39 in10.0 miENE (60°)3.5 mphOvercast
9:53 PM32.0 °F25.0 °F75 %30.39 in10.0 miEast (90°)6.9 mphOvercast
10:53 PM30.0 °F24.1 °F79 %30.38 in10.0 miEast (100°)10.4 mphOvercast
11:53 PM30.9 °F24.1 °F76 %30.38 in10.0 miESE (120°)5.8 mphOvercast
Hourly data recorded from KCPS, located miles away from St. Louis - Saint Louis University, Missouri







STORIES FROM OUR PARTNERS